Flag for U.S.A. Weather past 2 weeks in Youngstown, Ohio, U.S.A.

Now
77 °F

Passing clouds.


Feels Like: 78 °F
Forecast: 58 / 79 °F
Wind: 8 mph from Northwest

Location: Youngstown-Warren Regional Airport

Current Time: Jul 4, 2015 at 4:59:07 PM

Latest Report: Jul 4, 2015 at 3:51 PM


Visibility: 10 mi

Pressure: 29.98 "Hg

Humidity: 39%

Dew point: 50 °F

Location of YoungstownLocation

Historic Weather in Youngstown — Graph

°F

Youngstown temperature yesterday

Maximum temperature yesterday: 76 °F (at 3:51 PM)
Minimum temperature yesterday: 51 °F (at 4:51 AM)
Average temperature yesterday: 65 °F

Past Weeks' High & Low Weather Summary

 TemperatureHumidityPressure
High84 °F (Jun 22, 3:51 PM)100% (Jun 21, 1:51 AM)30.16 "Hg (Jun 21, 1:51 AM)
Low51 °F (Jul 3, 4:51 AM)33% (Jun 24, 4:51 PM)29.56 "Hg (Jun 28, 4:51 AM)
Average67 °F80%29.91 "Hg
* Reported Jun 19 3:51 PM — Jul 4 3:51 PM, Youngstown, Weather by CustomWeather, © 2015

Note: Actual official high and low records may vary slightly from our data, if they occured in-between our weather recording intervals... More about our weather records

Advertising

Youngstown weather history for previous 24 hours

 ConditionsComfort  
Time TempWeatherWind HumidityBarometerVisibility
3:51 PM
Sat, Jul 4
77 °FPassing clouds.8 mph39%29.98 "Hg10 mi
2:51 PM76 °FPassing clouds.9 mph42%29.97 "Hg10 mi
1:51 PM76 °FPassing clouds.6 mph43%29.96 "Hg10 mi
12:51 PM75 °FPassing clouds.8 mph50%29.96 "Hg10 mi
11:51 AM74 °FPassing clouds.8 mph53%29.96 "Hg10 mi
10:51 AM72 °FPassing clouds.9 mph59%29.95 "Hg10 mi
9:51 AM68 °FPassing clouds.8 mph73%29.94 "Hg10 mi
8:51 AM65 °FPassing clouds.7 mph76%29.93 "Hg10 mi
7:51 AM61 °FScattered clouds.6 mph83%29.91 "Hg10 mi
6:51 AM59 °FPassing clouds.No wind90%29.89 "Hg10 mi
5:51 AM60 °FMostly cloudy.3 mph90%29.88 "Hg10 mi
4:51 AM61 °FMostly cloudy.3 mph87%29.87 "Hg10 mi
3:51 AM62 °FOvercast.5 mph83%29.87 "Hg10 mi
2:51 AM64 °FOvercast.5 mph78%29.86 "Hg10 mi
1:51 AM64 °FMostly cloudy.3 mph75%29.87 "Hg10 mi
12:51 AM63 °FPartly cloudy.No wind81%29.88 "Hg10 mi
11:51 PM
Fri, Jul 3
65 °FLight rain. Mostly cloudy.No wind76%29.88 "Hg10 mi
10:51 PM66 °FMostly cloudy.6 mph70%29.89 "Hg10 mi
9:51 PM68 °FCloudy.5 mph68%29.89 "Hg10 mi
8:51 PM71 °FMostly cloudy.8 mph63%29.88 "Hg10 mi
7:51 PM72 °FMostly cloudy.6 mph61%29.88 "Hg10 mi
6:51 PM74 °FMostly cloudy.7 mph57%29.88 "Hg10 mi
5:51 PM75 °FMostly cloudy.5 mph50%29.90 "Hg10 mi
4:51 PM76 °FPartly sunny.5 mph45%29.90 "Hg10 mi
Weather by CustomWeather, © 2015

See weather overviewHow to use our weather pages